TimeEDT,TemperatureF,Dew PointF,Humidity,Sea Level PressureIn,VisibilityMPH,Wind Direction,Wind SpeedMPH,Gust SpeedMPH,PrecipitationIn,Events,Conditions,WindDirDegrees,DateUTC
12:56 AM,43.0,39.0,86,29.98,2.0,NNW,5.8,-,N/A,,Overcast,330,2013-04-05 04:56:00
1:56 AM,42.1,37.9,85,29.96,2.0,NW,8.1,-,N/A,,Overcast,320,2013-04-05 05:56:00
2:03 AM,42.8,37.4,81,29.95,6.0,NW,6.9,-,N/A,,Overcast,320,2013-04-05 06:03:00
2:56 AM,42.1,37.9,85,29.96,6.0,Variable,6.9,-,N/A,,Overcast,0,2013-04-05 06:56:00
3:56 AM,42.1,37.9,85,29.93,10.0,North,5.8,-,N/A,,Overcast,350,2013-04-05 07:56:00
4:56 AM,42.1,37.0,82,29.93,10.0,North,6.9,-,N/A,,Overcast,350,2013-04-05 08:56:00
5:13 AM,42.8,37.4,81,29.94,10.0,Calm,Calm,-,N/A,,Overcast,0,2013-04-05 09:13:00
5:46 AM,42.8,37.4,81,29.95,10.0,Variable,3.5,-,N/A,,Overcast,0,2013-04-05 09:46:00
5:56 AM,42.1,37.0,82,29.96,10.0,NNW,4.6,-,N/A,,Overcast,340,2013-04-05 09:56:00
6:37 AM,42.8,37.4,81,29.94,10.0,NNW,4.6,-,N/A,,Overcast,340,2013-04-05 10:37:00
6:56 AM,42.1,37.9,85,29.94,10.0,NNW,4.6,-,N/A,,Overcast,330,2013-04-05 10:56:00
7:06 AM,42.8,37.4,81,29.94,10.0,NNW,6.9,-,N/A,,Overcast,340,2013-04-05 11:06:00
7:29 AM,42.8,37.4,81,29.94,10.0,NNW,4.6,-,N/A,,Overcast,330,2013-04-05 11:29:00
7:56 AM,42.1,37.9,85,29.94,10.0,NNW,5.8,-,N/A,,Scattered Clouds,330,2013-04-05 11:56:00
8:09 AM,42.8,37.4,81,29.94,10.0,Variable,3.5,-,N/A,,Partly Cloudy,0,2013-04-05 12:09:00
8:31 AM,42.8,37.4,81,29.96,10.0,Variable,3.5,-,N/A,,Mostly Cloudy,0,2013-04-05 12:31:00
8:56 AM,44.1,37.9,79,29.97,10.0,Variable,4.6,-,N/A,,Mostly Cloudy,0,2013-04-05 12:56:00
9:03 AM,44.6,39.2,81,29.97,10.0,North,5.8,-,N/A,,Mostly Cloudy,360,2013-04-05 13:03:00
9:56 AM,45.0,37.9,76,30.00,10.0,North,5.8,-,N/A,,Overcast,360,2013-04-05 13:56:00
10:56 AM,48.9,39.9,71,29.99,10.0,Variable,4.6,-,N/A,,Mostly Cloudy,0,2013-04-05 14:56:00
11:31 AM,50.0,39.2,66,29.99,10.0,North,8.1,-,N/A,,Overcast,360,2013-04-05 15:31:00
11:56 AM,52.0,42.1,69,29.99,10.0,NNE,5.8,-,N/A,,Mostly Cloudy,20,2013-04-05 15:56:00
12:56 PM,54.0,43.0,66,29.99,10.0,Calm,Calm,-,N/A,,Overcast,0,2013-04-05 16:56:00
1:56 PM,57.9,44.1,60,29.97,10.0,North,5.8,-,N/A,,Overcast,360,2013-04-05 17:56:00
2:20 PM,57.2,44.6,63,29.96,10.0,NE,5.8,-,N/A,,Overcast,50,2013-04-05 18:20:00
2:56 PM,57.9,44.1,60,29.96,10.0,North,5.8,-,N/A,,Overcast,10,2013-04-05 18:56:00
3:07 PM,57.2,44.6,63,29.95,10.0,North,6.9,-,N/A,,Overcast,10,2013-04-05 19:07:00
3:56 PM,57.9,44.1,60,29.95,10.0,North,8.1,-,N/A,,Overcast,360,2013-04-05 19:56:00
4:56 PM,60.1,45.0,57,29.95,10.0,North,5.8,-,N/A,,Overcast,350,2013-04-05 20:56:00
5:56 PM,60.1,45.0,57,29.96,10.0,WNW,6.9,-,N/A,,Mostly Cloudy,290,2013-04-05 21:56:00
6:56 PM,62.1,45.0,53,29.96,10.0,Calm,Calm,-,N/A,,Scattered Clouds,0,2013-04-05 22:56:00
7:56 PM,57.0,46.9,69,29.98,10.0,South,3.5,-,N/A,,Clear,190,2013-04-05 23:56:00
8:56 PM,52.0,46.0,80,30.00,10.0,Calm,Calm,-,N/A,,Clear,0,2013-04-06 00:56:00
9:56 PM,48.9,45.0,86,30.03,10.0,Calm,Calm,-,N/A,,Clear,0,2013-04-06 01:56:00
10:56 PM,48.9,45.0,86,30.04,10.0,West,3.5,-,N/A,,Clear,270,2013-04-06 02:56:00
11:56 PM,46.9,43.0,86,30.04,10.0,Calm,Calm,-,N/A,,Clear,0,2013-04-06 03:56:00